CW7222 Weather Reports


time (UTC)temp
C
wind
direction
speed
KPH
gust
KPH
rain 1hr
cm
rain 24hr
cm
rain mn
cm
humidity
%
barometer
mb
20260510091339 19 268 3.2 16.1 0.00 6.40 0.00 71 1010.4
20260510090347 19 285 8.0 20.9 0.00 6.40 0.00 71 1010.4
20260510085330 18 243 3.2 12.9 0.00 6.40 0.00 73 1010.4
20260510084339 18 237 3.2 20.9 0.00 6.40 0.00 74 1010.4
20260510083346 18 240 11.3 24.1 0.00 6.40 0.00 75 1010.4
20260510082334 18 296 6.4 14.5 0.00 6.40 0.00 75 1010.3
20260510075347 17 261 4.8 17.7 0.00 6.40 0.00 76 1010.0
20260510074330 17 254 4.8 17.7 0.00 6.40 0.00 76 1010.0
20260510073341 17 230 1.6 20.9 0.00 6.40 0.00 77 1010.0
20260510072349 16 315 3.2 17.7 0.00 6.40 0.00 78 1009.9
20260510071340 16 293 4.8 16.1 0.00 6.40 0.00 79 1010.0
20260510070348 16 278 1.6 16.1 0.00 6.40 0.00 80 1010.0
20260510064341 15 304 3.2 12.9 0.00 6.40 0.00 82 1009.9
20260510062340 15 293 4.8 14.5 0.00 6.40 0.00 83 1009.8
20260510061350 15 300 1.6 16.1 0.00 6.40 0.00 84 1009.9
20260510060337 15 275 6.4 14.5 0.00 6.40 0.00 84 1009.9
20260510055345 14 300 0.0 0.0 0.00 6.40 0.00 85 1009.8
20260510053340 14 217 0.0 11.3 0.00 6.40 0.00 86 1009.9
20260510052348 13 327 4.8 14.5 0.00 6.40 0.00 86 1009.7
20260510051339 13 291 6.4 16.1 0.00 6.40 0.00 87 1009.6
20260510050347 13 278 6.4 19.3 0.00 6.40 0.00 87 1009.6
20260510045335 13 308 8.0 14.5 0.00 6.40 0.00 87 1009.6
20260510044345 13 305 8.0 12.9 0.00 6.40 0.00 87 1009.8
20260510042343 13 297 8.0 12.9 0.00 6.40 0.00 88 1009.8
20260510041331 13 300 8.0 12.9 0.00 6.40 0.00 88 1009.8
20260510040340 13 281 3.2 8.0 0.00 6.40 0.00 89 1009.8
20260510035348 13 300 9.7 12.9 0.00 6.40 0.00 89 1009.8
20260510034333 13 302 8.0 11.3 0.00 6.40 0.00 89 1009.9
20260510033341 13 308 8.0 12.9 0.00 6.40 0.00 90 1009.9
20260510032351 13 308 8.0 11.3 0.00 6.40 0.00 90 1010.0
20260510031337 13 301 8.0 12.9 0.00 6.40 0.00 90 1010.3
20260510030345 13 303 3.2 8.0 0.00 6.40 0.00 90 1010.3
20260510025335 13 300 4.8 8.0 0.00 6.40 0.00 90 1010.4
20260510024342 13 279 4.8 11.3 0.00 6.40 0.00 90 1010.4
20260510023333 13 281 0.0 0.0 0.00 6.40 0.00 90 1010.4
20260510022341 13 312 3.2 8.0 0.00 6.40 0.00 90 1010.2
20260510020342 13 317 0.0 0.0 0.00 6.40 0.00 90 1010.2
20260510015349 13 313 0.0 0.0 0.00 6.40 0.00 90 1010.1
20260510011346 14 316 0.0 0.0 0.00 6.40 0.00 89 1010.4
20260510010332 14 320 0.0 0.0 0.00 6.40 0.00 88 1010.4
20260510005340 14 321 0.0 0.0 0.00 6.40 0.00 88 1010.5
20260510003335 14 324 0.0 0.0 0.00 6.40 0.00 88 1010.6
20260510002347 15 325 0.0 0.0 0.00 6.40 0.00 88 1010.9
20260510001332 15 325 0.0 0.0 0.00 6.40 0.00 87 1011.1
20260510000341 15 325 0.0 0.0 0.00 6.40 0.00 87 1011.1
20260509233349 15 313 9.7 12.9 0.00 6.40 0.00 87 1011.3
20260509232340 15 321 8.0 14.5 0.00 6.40 0.00 87 1011.2
20260509231348 15 323 0.0 12.9 0.00 6.40 0.00 87 1011.3
20260509230335 15 309 9.7 16.1 0.00 6.40 0.00 88 1011.3
20260509224350 15 317 8.0 14.5 0.00 6.40 0.00 88 1011.4
20260509223336 15 302 9.7 14.5 0.00 6.40 0.00 89 1011.4
20260509222347 15 319 8.0 16.1 0.00 6.40 0.00 89 1011.3
20260509221332 15 313 6.4 14.5 0.00 6.40 0.00 89 1011.2
20260509220341 15 314 0.0 0.0 0.00 6.40 0.00 90 1011.2
20260509215349 14 313 3.2 9.7 0.00 6.40 1.27 90 1011.4
20260509214336 14 333 3.2 8.0 0.00 6.40 1.27 90 1011.4
20260509213345 14 318 4.8 8.0 0.00 6.40 1.27 90 1011.4
20260509212339 14 319 0.0 6.4 0.00 6.40 1.27 91 1011.4
20260509211347 14 320 3.2 6.4 0.00 6.40 1.27 91 1011.3
20260509210333 14 346 3.2 6.4 0.00 6.40 1.27 90 1011.3
20260509205340 14 360 3.2 4.8 0.00 6.40 1.27 90 1011.0
20260509204350 15 360 3.2 6.4 0.00 6.40 1.27 90 1010.9
20260509203346 15 55 0.0 0.0 0.00 6.40 1.27 90 1010.9
20260509202332 14 56 0.0 0.0 0.00 6.40 1.27 90 1010.5
20260509201339 15 56 0.0 0.0 0.00 6.40 1.27 90 1010.4
20260509200348 15 56 0.0 0.0 0.00 6.40 1.27 89 1010.4
20260509194345 14 57 0.0 0.0 0.00 6.40 1.27 89 1010.0
20260509191339 14 57 0.0 0.0 0.10 6.40 1.27 88 1009.4
20260509190349 14 57 0.0 8.0 0.10 6.40 1.27 88 1009.4
20260509185336 14 39 1.6 12.9 0.10 6.40 1.27 88 1008.9
20260509184345 15 346 1.6 11.3 0.10 6.40 1.27 88 1008.9
20260509183337 15 350 4.8 9.7 0.20 6.40 1.27 89 1008.9
20260509181339 15 314 0.0 6.4 0.10 6.30 1.27 89 1008.3
20260509180347 15 317 1.6 9.7 0.30 6.30 1.27 89 1008.3
20260509175333 14 296 3.2 16.1 0.71 6.30 1.27 89 1007.4
20260509173336 13 351 3.2 12.9 1.30 6.20 1.24 91 1008.2
20260509170341 14 11 4.8 11.3 2.59 5.99 1.19 91 1009.4
20260509165350 15 91 4.8 9.7 2.59 5.59 1.12 91 1010.3
20260509164338 15 325 0.0 4.8 2.39 5.21 1.04 92 1010.6
20260509163350 15 318 0.0 0.0 2.11 4.80 0.97 91 1010.6
20260509162341 15 202 0.0 0.0 1.70 4.29 0.86 91 1011.3
20260509161350 15 202 0.0 0.0 1.40 3.81 0.76 91 1011.4
20260509160338 15 202 0.0 0.0 1.09 3.30 0.66 91 1011.4
20260509155345 15 101 0.0 0.0 1.19 3.00 0.61 91 1010.2
20260509153348 15 149 0.0 0.0 1.09 2.59 0.51 91 1009.9
20260509152333 15 101 1.6 11.3 1.30 2.59 0.51 91 1008.4
20260509151340 16 50 3.2 17.7 1.40 2.39 0.48 91 1008.5
20260509145338 16 55 4.8 14.5 1.70 1.70 0.33 90 1008.8
20260509144351 16 41 4.8 12.9 1.60 1.60 0.33 90 1010.5
20260509143331 16 58 6.4 17.7 1.50 1.50 0.30 89 1010.5
20260509142340 16 140 0.0 6.4 1.30 1.30 0.25 87 1011.4
20260509141350 17 101 0.0 3.2 0.99 0.99 0.20 86 1011.4
20260509140334 17 113 0.0 0.0 0.41 0.41 0.08 83 1011.4
20260509135341 18 115 0.0 0.0 0.00 0.00 0.00 79 1011.0
20260509134349 18 115 0.0 0.0 0.00 0.00 0.00 75 1010.4
20260509132344 18 43 0.0 14.5 0.00 0.00 0.00 77 1009.6
20260509131332 17 46 0.0 19.3 0.00 0.00 0.00 79 1010.0
20260509130340 17 50 4.8 14.5 0.00 0.00 0.00 80 1010.0
20260509125347 17 84 8.0 24.1 0.00 0.00 0.00 81 1010.4
20260509123341 18 84 1.6 22.5 0.00 0.00 0.00 77 1010.4
20260509122347 18 69 3.2 16.1 0.00 0.00 0.00 76 1010.9
20260509121341 18 143 3.2 16.1 0.00 0.00 0.00 77 1011.4
20260509114349 18 81 3.2 16.1 0.00 0.00 0.00 77 1012.0
20260509113335 18 57 1.6 14.5 0.00 0.00 0.00 78 1012.0
20260509111337 18 82 3.2 17.7 0.00 0.00 0.00 80 1012.0
20260509105333 18 121 3.2 14.5 0.00 0.00 0.00 81 1012.1
20260509104340 18 44 1.6 19.3 0.00 0.00 0.00 82 1012.0
20260509102336 18 92 3.2 22.5 0.00 0.00 0.00 81 1012.0
20260509101348 18 206 1.6 19.3 0.00 0.00 0.00 81 1012.0
20260509100335 18 156 4.8 19.3 0.00 0.00 0.00 81 1012.0
20260509095340 18 143 0.0 12.9 0.00 0.00 0.00 80 1011.9
20260509094348 18 59 3.2 20.9 0.00 0.00 0.00 80 1011.7
20260509093335 18 115 3.2 17.7 0.00 0.00 0.00 81 1011.7
20260509092344 18 73 4.8 16.1 0.00 0.00 0.00 80 1011.4